Regional Weather Roundup
Issued by NWS

Home | Current Version | Previous Version | Graphics & Text | Print | Product List | Glossary On
Versions: 1 2 3 4 5 6 7 8 9 10 11 12 13 14 15 16 17 18 19 20 21 22 23 24 25 26 27 28 29 30 31 32 33 34 35 36 37 38 39 40 41 42 43 44 45 46 47 48 49 50
000
ASUS45 KCYS 240910
RWRWY

WYOMING REGIONAL WEATHER ROUNDUP
NATIONAL WEATHER SERVICE CHEYENNE WY
200 AM MST WED DEC 24 2014

NOTE:  "FAIR" INDICATES FEW OR NO CLOUDS BELOW 12,000 FEET
WITH NO SIGNIFICANT WEATHER AND/OR OBSTRUCTIONS TO VISIBILITY.

WYZ001-241000-
YELLOWSTONE NATIONAL PARK

CITY           SKY/WX    TMP DP  RH WIND       PRES   REMARKS
LK YELLOWSTONE   N/A     18  13  80 VRB6      30.10F WCI  10
W YELLOWSTONE  NOT AVBL

$$
WYZ002>013-054>058-071-098>099-241000-
NORTHERN WYOMING

CITY           SKY/WX    TMP DP  RH WIND       PRES   REMARKS
JACKSON        FAIR       9   7  92 N9        30.14F WCI  -5
CODY           FAIR      23  10  58 E5        29.89F WCI  17
GREYBULL       FAIR      17  13  84 S5        30.00F WCI  10
WORLAND        FAIR       9   4  80 S7        29.99F WCI  -2
SHERIDAN       FAIR      23  11  60 CALM      29.82F
BUFFALO        FAIR      28   4  35 S6        29.85F WCI  22
GILLETTE       FAIR      27  11  51 SW14      29.87F WCI  16
HULETT           N/A    N/A N/A N/A MISG        N/A
NEWCASTLE      FAIR      12   9  85 CALM      29.97S

$$
WYZ014>020-022>026-101>103-241000-
CENTRAL WYOMING

CITY           SKY/WX    TMP DP  RH WIND       PRES   REMARKS
BIG PINEY      FAIR       8   4  83 NW5       30.11F WCI   0
PINEDALE       FAIR       5   1  85 CALM      30.10F
DUBOIS         NOT AVBL
LANDER         FAIR      20   5  52 SE3       29.97F
RIVERTON       FAIR      17   6  62 SW9       29.98F WCI   6
CASPER         FAIR      21  10  62 SW17G28   29.99S WCI   7
DOUGLAS        FAIR      11   6  81 CALM      29.97F

$$
WYZ021-027>030-104>119-241000-
SOUTHERN WYOMING

CITY           SKY/WX    TMP DP  RH WIND       PRES   REMARKS
EVANSTON       FAIR      14  10  84 SW12      30.18F WCI   0
FORT BRIDGER   FAIR      20   9  60 W12       30.19R WCI   9
ROCK SPRINGS   FAIR      20  10  65 W23       30.13F WCI   3
DIXON          FAIR       5   1  83 E5        30.22S WCI  -4
RAWLINS        FAIR      17   8  67 SW25G38   30.05F WCI  -1
SARATOGA       FAIR      12   5  73 S9        30.12F WCI   0
LARAMIE        FAIR       8   1  73 S12       29.98F WCI  -7
CHEYENNE       FAIR      13   3  64 SW9       29.96F WCI   1
TORRINGTON     FAIR      12   8  84 CALM      29.99F
PINE BLUFFS    FAIR      14   7  73 CALM      30.02F

$$



USA.gov is the U.S. government's official web portal to all federal, state and local government web resources and services.